AHY7149 UDYZ-UKBB

Flight info

Callsign AHY7149
Flight time N/A
Altitude 38000
Route N0470F380 SEVAN T924 TISOT N82 OKARU A962 STW B494 OLGIN M991 DOTEL P987 NIKIG P749 VEBIX
Aircraft B763/H-VGDW/C

Departure

Time 2026-05-06 16:07
Airport Zvartnots International Airport (UDYZ)

Arrival

Time N/A
Airport Boryspil International Airport (UKBB)
Time Latitude Longitude Altitude Speed Heading
2026-05-06 15:55 40.15252 44.39624 2848 ft 0 kts 157°
2026-05-06 15:59 40.15253 44.39623 2848 ft 1 kts 157°
2026-05-06 16:00 40.15266 44.39616 2849 ft 2 kts 157°
2026-05-06 16:00 40.15280 44.39609 2849 ft 2 kts 157°
2026-05-06 16:00 40.15294 44.39601 2849 ft 2 kts 157°
2026-05-06 16:00 40.15308 44.39594 2849 ft 2 kts 157°
2026-05-06 16:01 40.15322 44.39588 2849 ft 2 kts 183°
2026-05-06 16:01 40.15336 44.39593 2849 ft 0 kts 206°
2026-05-06 16:01 40.15339 44.39595 2849 ft 0 kts 207°
2026-05-06 16:02 40.15335 44.39592 2849 ft 3 kts 207°
2026-05-06 16:03 40.15284 44.39565 2848 ft 10 kts 197°
2026-05-06 16:03 40.15192 44.39558 2848 ft 16 kts 169°
2026-05-06 16:03 40.15086 44.39640 2848 ft 15 kts 126°
2026-05-06 16:03 40.15030 44.39747 2848 ft 17 kts 135°
2026-05-06 16:04 40.14977 44.39928 2848 ft 27 kts 91°
2026-05-06 16:04 40.14977 44.40222 2848 ft 37 kts 90°
2026-05-06 16:04 40.14979 44.40527 2848 ft 34 kts 90°
2026-05-06 16:04 40.14980 44.40844 2848 ft 31 kts 89°
2026-05-06 16:05 40.14982 44.41119 2848 ft 28 kts 89°
2026-05-06 16:05 40.14983 44.41368 2848 ft 25 kts 90°
2026-05-06 16:05 40.14993 44.41591 2848 ft 22 kts 93°
2026-05-06 16:05 40.14920 44.41750 2848 ft 19 kts 146°
2026-05-06 16:06 40.14806 44.41825 2848 ft 16 kts 174°
2026-05-06 16:06 40.14736 44.41726 2848 ft 23 kts 256°
2026-05-06 16:06 40.14729 44.41219 2848 ft 89 kts 270°
2026-05-06 16:06 40.14723 44.40101 2848 ft 151 kts 269°
2026-05-06 16:07 40.14715 44.38512 3003 ft 193 kts 269°
2026-05-06 16:07 40.14714 44.36593 3272 ft 231 kts 269°
2026-05-06 16:07 40.14821 44.34275 3508 ft 276 kts 283°
2026-05-06 16:07 40.15712 44.31862 3800 ft 320 kts 306°
2026-05-06 16:08 40.17374 44.29764 4487 ft 338 kts 327°
2026-05-06 16:08 40.19398 44.28619 6134 ft 316 kts 344°
2026-05-06 16:08 40.21484 44.28415 7595 ft 296 kts
2026-05-06 16:08 40.23361 44.29261 8695 ft 286 kts 31°
2026-05-06 16:09 40.24764 44.31076 9359 ft 288 kts 59°
2026-05-06 16:09 40.25397 44.33544 10047 ft 287 kts 84°
2026-05-06 16:09 40.25531 44.36226 10273 ft 308 kts 87°
2026-05-06 16:09 40.25655 44.39124 10313 ft 334 kts 86°
2026-05-06 16:10 40.26091 44.42233 10549 ft 354 kts 71°
2026-05-06 16:10 40.27066 44.45219 11313 ft 358 kts 64°
2026-05-06 16:10 40.28270 44.48106 12063 ft 361 kts 60°
2026-05-06 16:10 40.29567 44.50933 12705 ft 367 kts 58°
2026-05-06 16:11 40.31072 44.53680 13345 ft 373 kts 47°
2026-05-06 16:11 40.33097 44.55848 13992 ft 378 kts 30°
2026-05-06 16:11 40.35493 44.57217 14614 ft 381 kts 14°
2026-05-06 16:11 40.38125 44.57698 15252 ft 383 kts 358°
2026-05-06 16:12 40.40765 44.57311 15884 ft 385 kts 349°
2026-05-06 16:12 40.43435 44.57139 16476 ft 392 kts
2026-05-06 16:12 40.46183 44.57514 17051 ft 396 kts 359°
2026-05-06 16:12 40.48892 44.57176 17658 ft 395 kts 344°
2026-05-06 16:13 40.51563 44.56239 18257 ft 398 kts 343°
2026-05-06 16:13 40.54272 44.55535 18871 ft 402 kts 347°
2026-05-06 16:13 40.57079 44.54941 19499 ft 405 kts 348°
2026-05-06 16:13 40.59871 44.54415 20061 ft 410 kts 348°
2026-05-06 16:14 40.62703 44.53910 20650 ft 413 kts 349°
2026-05-06 16:14 40.65538 44.53418 21206 ft 417 kts 349°
2026-05-06 16:14 40.68416 44.52925 21794 ft 419 kts 349°
2026-05-06 16:14 40.71320 44.52429 22343 ft 422 kts 349°
2026-05-06 16:15 40.74250 44.51930 22879 ft 426 kts 348°
2026-05-06 16:15 40.77170 44.51340 23410 ft 426 kts 343°
2026-05-06 16:15 40.79974 44.50160 23939 ft 424 kts 333°
2026-05-06 16:15 40.82535 44.48374 24400 ft 423 kts 322°
2026-05-06 16:16 40.84845 44.45974 24896 ft 420 kts 312°
2026-05-06 16:16 40.86760 44.43110 25362 ft 418 kts 302°
2026-05-06 16:16 40.88328 44.39849 25869 ft 419 kts 298°
2026-05-06 16:16 40.90097 44.36773 26324 ft 427 kts 308°
2026-05-06 16:17 40.92201 44.33993 26800 ft 433 kts 313°
2026-05-06 16:17 40.94487 44.31309 27257 ft 438 kts 314°
2026-05-06 16:17 40.96855 44.28668 27715 ft 441 kts 315°
2026-05-06 16:17 40.99258 44.26052 28162 ft 445 kts 316°
2026-05-06 16:18 41.01673 44.23454 28607 ft 448 kts 316°
2026-05-06 16:18 41.04084 44.20874 29027 ft 451 kts 316°
2026-05-06 16:18 41.06570 44.18219 29454 ft 454 kts 316°
2026-05-06 16:18 41.09041 44.15581 29873 ft 457 kts 316°
2026-05-06 16:19 41.11521 44.12933 30288 ft 460 kts 316°
2026-05-06 16:19 41.14014 44.10269 30669 ft 463 kts 316°
2026-05-06 16:19 41.16521 44.07588 31029 ft 466 kts 316°
2026-05-06 16:19 41.19056 44.04876 31409 ft 468 kts 316°
2026-05-06 16:20 41.21580 44.02171 31765 ft 470 kts 316°
2026-05-06 16:20 41.24131 43.99436 32195 ft 470 kts 316°
2026-05-06 16:20 41.26654 43.96726 32536 ft 471 kts 317°
2026-05-06 16:20 41.29198 43.93995 32992 ft 470 kts 316°
2026-05-06 16:21 41.31734 43.91269 33421 ft 468 kts 316°
2026-05-06 16:21 41.34259 43.88550 33794 ft 467 kts 316°
2026-05-06 16:21 41.36751 43.85864 34146 ft 466 kts 316°
2026-05-06 16:21 41.39278 43.83136 34472 ft 466 kts 317°
2026-05-06 16:22 41.41776 43.80437 34749 ft 466 kts 317°
2026-05-06 16:22 41.44298 43.77711 35035 ft 465 kts 317°
2026-05-06 16:22 41.46774 43.75030 35303 ft 464 kts 317°
2026-05-06 16:22 41.49288 43.72307 35536 ft 465 kts 317°
2026-05-06 16:23 41.51771 43.69614 35769 ft 464 kts 317°
2026-05-06 16:23 41.54272 43.66899 35995 ft 463 kts 317°
2026-05-06 16:23 41.56766 43.64188 36202 ft 463 kts 317°
2026-05-06 16:23 41.59268 43.61467 36368 ft 464 kts 317°
2026-05-06 16:24 41.61740 43.58774 36538 ft 463 kts 317°
2026-05-06 16:24 41.64233 43.56057 36696 ft 463 kts 317°
2026-05-06 16:24 41.66717 43.53346 36850 ft 463 kts 317°
2026-05-06 16:24 41.69233 43.50598 36994 ft 463 kts 317°
2026-05-06 16:25 41.71715 43.47884 37135 ft 463 kts 317°
2026-05-06 16:25 41.74182 43.45183 37238 ft 464 kts 317°
2026-05-06 16:25 41.76687 43.42438 37369 ft 464 kts 317°
2026-05-06 16:25 41.79167 43.39717 37488 ft 464 kts 317°
2026-05-06 16:26 41.81666 43.36974 37601 ft 464 kts 317°
2026-05-06 16:26 41.84139 43.34255 37712 ft 464 kts 317°
2026-05-06 16:26 41.86633 43.31512 37833 ft 463 kts 317°
2026-05-06 16:26 41.89151 43.28739 37914 ft 464 kts 317°
2026-05-06 16:27 41.94117 43.23260 38045 ft 463 kts 317°
2026-05-06 16:27 41.99052 43.17805 38050 ft 461 kts 317°
2026-05-06 16:28 42.03960 43.12365 38053 ft 459 kts 317°
2026-05-06 16:28 42.08859 43.06928 38057 ft 457 kts 317°
2026-05-06 16:29 42.13720 43.01522 38051 ft 454 kts 317°
2026-05-06 16:29 42.18512 42.96180 38042 ft 452 kts 318°
2026-05-06 16:30 42.22489 42.91740 38034 ft 450 kts 318°
2026-05-06 16:30 42.28091 42.85471 38023 ft 448 kts 318°
2026-05-06 16:31 42.32835 42.80150 38014 ft 445 kts 318°
2026-05-06 16:31 42.37577 42.74822 38005 ft 442 kts 318°
2026-05-06 16:32 42.42279 42.69528 37995 ft 440 kts 318°
2026-05-06 16:32 42.46960 42.64247 37986 ft 437 kts 318°
2026-05-06 16:33 42.51567 42.59037 37975 ft 434 kts 318°
2026-05-06 16:34 42.58473 42.51210 37960 ft 429 kts 318°
2026-05-06 16:34 42.63030 42.46034 37950 ft 426 kts 318°
2026-05-06 16:35 42.67535 42.40905 37939 ft 423 kts 318°
2026-05-06 16:35 42.72008 42.35801 37928 ft 419 kts 318°
2026-05-06 16:36 42.76436 42.30742 37923 ft 415 kts 317°
2026-05-06 16:36 42.80799 42.25745 37918 ft 411 kts 317°
2026-05-06 16:37 42.85136 42.20771 37913 ft 407 kts 317°
2026-05-06 16:37 42.89446 42.15816 37907 ft 403 kts 317°
2026-05-06 16:38 42.93668 42.10955 37899 ft 398 kts 317°
2026-05-06 16:38 42.97871 42.06105 37891 ft 393 kts 317°
2026-05-06 16:39 43.02004 42.01328 37881 ft 387 kts 318°
2026-05-06 16:39 43.06059 41.96632 37868 ft 382 kts 318°
2026-05-06 16:40 43.10053 41.92000 37856 ft 375 kts 318°
2026-05-06 16:40 43.13998 41.87416 37834 ft 368 kts 319°
2026-05-06 16:41 43.17844 41.82939 37809 ft 361 kts 319°
2026-05-06 16:41 43.21628 41.78527 37787 ft 355 kts 318°
2026-05-06 16:42 43.25365 41.74162 37772 ft 351 kts 319°
2026-05-06 16:42 43.29026 41.69878 37755 ft 347 kts 319°
2026-05-06 16:43 43.32660 41.65620 37710 ft 344 kts 319°
2026-05-06 16:43 43.34526 41.63430 37231 ft 358 kts 319°
2026-05-06 16:43 43.36427 41.61196 36788 ft 370 kts 319°
2026-05-06 16:43 43.38434 41.58837 36317 ft 383 kts 319°
2026-05-06 16:44 43.40475 41.56436 35854 ft 395 kts 320°
2026-05-06 16:44 43.42587 41.53949 35387 ft 407 kts 320°
2026-05-06 16:44 43.44747 41.51404 34905 ft 412 kts 320°
2026-05-06 16:44 43.46891 41.48875 34414 ft 410 kts 320°
2026-05-06 16:45 43.49042 41.46334 34082 ft 405 kts 320°
2026-05-06 16:45 43.53291 41.41311 34090 ft 405 kts 321°
2026-05-06 16:46 43.57588 41.36220 34094 ft 412 kts 320°
2026-05-06 16:46 43.61962 41.31027 34093 ft 419 kts 320°
2026-05-06 16:47 43.66406 41.25740 34093 ft 428 kts 320°